Tracking 29747 objects as of 9-Oct-2024
HD Live streaming from Space Station
objects crossing your sky now

DELTA 1 DEB

Track DELTA 1 DEB now!
10-day predictions


NORAD ID: 21317
Int'l Code: 1975-052AK
Perigee: 965.7 km
Apogee: 1,301.6 km
Inclination: 100.1 °
Period: 107.8 minutes
Semi major axis: 7504 km
RCS: 0.0147 m2 (small)
Launch date: June 12, 1975
Source: United States (US)
Launch site: AIR FORCE WESTERN TEST RANGE (AFWTR)

Note: This is SATELLITE DEBRIS
Your satellite tracking list
Your tracking list is empty




NASA's NSSDC Master Catalog

Two Line Element Set (TLE):
1 21317U 75052AK  24281.46902859  .00009490  00000-0  16292-1 0  9996
2 21317 100.0938 213.5625 0223747   4.1697  59.3638 13.35387206598579
Source of the keplerian elements: AFSPC